Location: Boissi�res
(45.2500°N, 2.3667°E)
Time: 14:29:55
(UTC+00:00)

Resurs 1-3 - Pass Details

Date: 03 March 2021
Orbit: 629 x 633 km, 97.9° (Epoch: 19 April)

Event Time Altitude Azimuth Distance (km) Brightness Sun altitude
Exits shadow 19:38:47 44° 48° (NE) 884 4.0 -21.5°
Drops below altitude 10° 19:42:27 10° 358° (N) 2,027 6.4 -22.1°
Sets 19:44:43 0° 353° (N) 2,940 7.3 -22.5°
